Change the Weather History Date:

Monday, July 8, 2013

  Actual Average Record
Temperature  
Mean Temperature 52 °F -  
Max Temperature 57 °F 62 °F 84 °F (2003)
Min Temperature 48 °F 48 °F 40 °F (1986)
Degree Days  
Heating Degree Days 14    
Growing Degree Days 2 (Base 50)    
Moisture  
Dew Point 49 °F    
Average Humidity 92    
Maximum Humidity 100    
Minimum Humidity 70    
Precipitation  
Precipitation 0.01 in - - ()
Sea Level Pressure  
Sea Level Pressure 29.80 in    
Wind  
Wind Speed 5 mph (SW)    
Max Wind Speed 17 mph    
Max Gust Speed 28 mph    
Visibility 8 miles    
Events Fog , Rain    
Averages and records for this station are not official NWS values.
T = Trace of Precipitation, MM = Missing Value Source: NWS Daily Summary

Daily Weather History Graph

Daily Weather History Graph

Search for Another Location

Airport or City:

Trip Planner

Search our weather history database for the weather conditions in past years. The results will help you decide how hot, cold, wet, or windy it might be!

Date:

Astronomy

Jul. 08, 2013 Rise Set
Actual Time 5:14 AM AKDT 11:34 PM AKDT
Civil Twilight 3:49 AM AKDT 12:57 AM AKDT
Nautical Twilight Sun does not rise Sun does not rise
Astronomical Twilight Sun does not rise Sun does not rise
Moon 6:26 AM AKDT (7/8) 11:01 PM AKDT (7/8)
Length of Visible Light 21h 07m
Length of Day
18h 19m
New Moon, 0% of the Moon is Illuminated
Jul 8
New Moon
Jul 15
First Quarter
Jul 22
Full
Jul 29
Last Quarter
Aug 6
New

Hourly Weather History & Observations

Time (AKDT) Temp. Dew Point Humidity Pressure Visibility Wind Dir Wind Speed Gust Speed Precip Events Conditions
12:37 AM 50.0 °F 48.2 °F 94% 29.71 in 10.0 mi Calm Calm - N/A   Overcast
12:53 AM 50.0 °F 48.9 °F 96% 29.72 in 10.0 mi Calm Calm - N/A   Overcast
1:22 AM 51.8 °F 48.2 °F 88% 29.72 in 10.0 mi Calm Calm - N/A   Overcast
1:53 AM 50.0 °F 48.9 °F 96% 29.73 in 10.0 mi Calm Calm - N/A   Overcast
2:36 AM 50.0 °F 50.0 °F 100% 29.73 in 10.0 mi Calm Calm - N/A   Overcast
2:53 AM 50.0 °F 50.0 °F 100% 29.74 in 10.0 mi Calm Calm - N/A   Overcast
3:23 AM 50.0 °F 50.0 °F 100% 29.73 in 10.0 mi Calm Calm - N/A   Overcast
3:53 AM 48.9 °F 48.9 °F 100% 29.74 in 10.0 mi Calm Calm - N/A   Overcast
4:47 AM 48.2 °F 48.2 °F 100% 29.75 in 2.5 mi SW 3.5 mph - N/A   Overcast
4:53 AM 48.9 °F 48.9 °F 100% 29.76 in 2.5 mi WSW 3.5 mph - N/A   Overcast
5:00 AM 48.2 °F 48.2 °F 100% 29.75 in 6.0 mi WSW 4.6 mph - N/A   Overcast
5:27 AM 50.0 °F 50.0 °F 100% 29.76 in 2.0 mi Calm Calm - N/A   Overcast
5:36 AM 50.0 °F 50.0 °F 100% 29.76 in 1.8 mi Calm Calm - N/A   Overcast
5:46 AM 50.0 °F 50.0 °F 100% 29.76 in 2.0 mi SW 5.8 mph - N/A   Overcast
5:53 AM 50.0 °F 50.0 °F 100% 29.77 in 1.0 mi SW 6.9 mph - N/A   Overcast
6:53 AM 48.9 °F 48.9 °F 100% 29.77 in 0.5 mi SW 5.8 mph - 0.00 in Fog Fog
7:24 AM 48.2 °F 48.2 °F 100% 29.77 in 1.2 mi SW 4.6 mph - N/A   Mist
7:31 AM 48.2 °F 48.2 °F 100% 29.77 in 0.8 mi SW 5.8 mph - N/A   Mist
7:53 AM 50.0 °F 50.0 °F 100% 29.78 in 0.8 mi SW 5.8 mph - N/A   Mist
8:16 AM 50.0 °F 50.0 °F 100% 29.78 in 1.0 mi WSW 5.8 mph - N/A   Mist
8:53 AM 50.0 °F 50.0 °F 100% 29.79 in 6.0 mi WSW 6.9 mph - 0.00 in Rain Light Rain
9:53 AM 51.1 °F 51.1 °F 100% 29.80 in 10.0 mi WSW 4.6 mph - 0.00 in   Overcast
10:53 AM 53.1 °F 51.1 °F 93% 29.80 in 10.0 mi SW 3.5 mph - N/A   Overcast
11:14 AM 53.6 °F 51.8 °F 94% 29.79 in 10.0 mi SW 5.8 mph - N/A   Overcast
11:53 AM 55.9 °F 52.0 °F 87% 29.80 in 10.0 mi SW 9.2 mph - N/A   Overcast
12:53 PM 57.0 °F 51.1 °F 81% 29.81 in 10.0 mi SSW 12.7 mph - N/A   Overcast
1:53 PM 53.1 °F 51.1 °F 93% 29.82 in 10.0 mi SW 12.7 mph - 0.00 in Rain Light Rain
2:00 PM 53.6 °F 51.8 °F 94% 29.82 in 10.0 mi SW 16.1 mph 20.7 mph 0.01 in Rain Light Rain
2:53 PM 54.0 °F 50.0 °F 86% 29.84 in 10.0 mi SW 16.1 mph 26.5 mph 0.01 in Rain Light Rain
3:53 PM 54.0 °F 46.9 °F 77% 29.85 in 10.0 mi SW 11.5 mph 19.6 mph 0.00 in Rain Light Rain
4:53 PM 54.0 °F 46.0 °F 75% 29.85 in 10.0 mi SW 16.1 mph 24.2 mph 0.00 in   Overcast
5:53 PM 55.0 °F 46.9 °F 74% 29.86 in 10.0 mi SW 17.3 mph 25.3 mph N/A   Overcast
6:53 PM 54.0 °F 46.9 °F 77% 29.86 in 10.0 mi SW 16.1 mph 27.6 mph N/A   Overcast
7:53 PM 54.0 °F 48.0 °F 80% 29.87 in 10.0 mi SW 15.0 mph 24.2 mph N/A   Overcast
8:53 PM 53.1 °F 46.9 °F 80% 29.88 in 10.0 mi SW 17.3 mph 26.5 mph N/A   Mostly Cloudy
9:53 PM 51.1 °F 46.9 °F 86% 29.89 in 10.0 mi SW 16.1 mph 21.9 mph N/A   Mostly Cloudy
10:37 PM 50.0 °F 46.4 °F 87% 29.88 in 10.0 mi WSW 10.4 mph - N/A   Scattered Clouds
10:53 PM 48.9 °F 46.0 °F 90% 29.90 in 10.0 mi WSW 9.2 mph 16.1 mph N/A   Mostly Cloudy
11:28 PM 48.2 °F 46.4 °F 93% 29.90 in 10.0 mi WSW 10.4 mph 20.7 mph N/A   Overcast
11:53 PM 48.9 °F 46.0 °F 90% 29.91 in 10.0 mi WSW 10.4 mph - N/A   Overcast